Location: Caltech
(34.1382°N, 118.1253°W)
Time: 00:20:39
(UTC-07:00)

COSMOS 2428 - Visible Passes

Search period start: 21 April 2014 00:00
Search period end: 01 May 2014 00:00
Orbit: 843 x 860 km, 70.9° (Epoch: 21 April)

Date Brightness Start Highest point End Pass type
(mag) Time Alt. Az. Time Alt. Az. Time Alt. Az.
27 Apr 5.6 05:37:25 10° SE 05:40:15 14° E 05:43:05 10° ENE visible
28 Apr 5.5 05:25:17 10° SE 05:28:08 14° E 05:30:58 10° ENE visible
29 Apr 5.5 05:13:09 10° SE 05:16:00 14° E 05:18:51 10° ENE visible
30 Apr 5.5 05:01:01 10° SE 05:03:52 14° E 05:06:44 10° ENE visible
